Location: Bergnershof
(48.9468°N, 10.9431°E)
Time: 21:48:50
(UTC+00:00)

Cosmos 968 Rocket - Pass Details

Date: 03 March 2021
Orbit: 740 x 771 km, 74.0° (Epoch: 12 April)

Event Time Altitude Azimuth Distance (km) Brightness Sun altitude
Rises 17:47:56 0° 335° (NNW) 3,250 7.1 -8.2°
Reaches altitude 10° 17:50:19 10° 334° (NNW) 2,322 6.4 -8.6°
Maximum altitude 17:55:35 75° 250° (WSW) 801 3.8 -9.4°
Drops below altitude 10° 18:00:49 10° 166° (SSE) 2,310 5.8 -10.3°
Sets 18:03:11 0° 164° (SSE) 3,231 6.6 -10.7°
